Regional Weather Roundup
Issued by NWS Newport/Morehead, NC

Current Version | Previous Version | Text Only | Print | Product List | Glossary On
Versions: 1 2 3 4 5 6 7 8 9 10 11 12 13 14 15 16 17 18 19 20 21 22 23 24 25 26 27 28 29 30 31 32 33 34 35 36 37 38 39 40 41 42 43 44 45 46 47 48 49 50
176 ASUS42 KMHX 271625 RWRMHX WEATHER ROUNDUP FOR EASTERN NORTH CAROLINA NATIONAL WEATHER SERVICE NEWPORT/MOREHEAD CITY NC 1200 PM EDT THU APR 27 2017 NOTE: "FAIR" INDICATES FEW OR NO CLOUDS BELOW 12,000 FEET WITH NO SIGNIFICANT WEATHER AND/OR OBSTRUCTIONS TO VISIBILITY NCZ015>017-031-032-045>047-102-103-271700- NORTH COAST CITY SKY/WX TMP DP RH WIND PRES REMARKS EDENTON SUNNY 80 63 55 SW12 29.95S ELIZABETH CITY SUNNY 79 66 64 S16 29.94S KITTY HAWK PTSUNNY 80 63 56 SW10 29.94F MANTEO PTSUNNY 74 67 77 S13 29.96S $$ NCZ045>047-081-094-103-104-271700- CENTRAL COAST CITY SKY/WX TMP DP RH WIND PRES REMARKS FRISCO SUNNY 77 65 66 SW6 29.98S HAZE $$ NCZ095-097-098-100-101-271700- SOUTHERN COAST CITY SKY/WX TMP DP RH WIND PRES REMARKS BEAUFORT PTSUNNY 76 68 76 SW12 29.97F CEDAR ISLAND NOT AVBL JACKSONVILLE PTSUNNY 80 63 55 SW9 29.94F PINEY ISLAND CLOUDY N/A N/A N/A SW12 29.97S WILMINGTON SUNNY 81 56 42 SW10 29.94F $$ NCZ011>013-027>030-043-044-078>080-089-090>093-098-271700- COASTAL PLAIN CITY SKY/WX TMP DP RH WIND PRES REMARKS AHOSKIE N/A 77 60 55 S3 29.91F CLINTON SUNNY 79 60 50 SW8 29.92F ELIZABETHTOWN SUNNY 80 56 42 S10G18 29.91F GOLDSBORO SUNNY 79 62 56 SW15 29.90F GREENVILLE SUNNY 79 63 57 SW12G17 29.95F HAVELOCK NOT AVBL KENANSVILLE SUNNY 79 61 53 SW5 29.93F KINSTON MOSUNNY 81 63 54 SW10 29.94F NEW BERN MOSUNNY 81 64 56 W8 29.96F RICHLANDS MOSUNNY 81 63 54 S8 29.94F ROCKY MOUNT SUNNY 77 65 66 S9 29.91F WASHINGTON SUNNY 79 62 54 S12G17 29.93F WHITEVILLE MOSUNNY 79 59 50 SW13 29.92F $$ AMZ130-135-150-152-154-156-158-170-250-252-270-ANZ085-086-088-633-658-670-271700- MARINE OBSERVATIONS STATION/POSITION TIME TEMP WIND PRES WAVE SWELL AIR SEA DIR/SP/G HT/PER HT/PER (UTC) (F) (DEG/KT/KT) (MB) (FT/S) (FT/S) CHESAPEAKE LIGHT NOT AVBL 64 E VA BEACH 1550 60 56 200/ 10/ 12 1014.8 4/10 5/10 DUCK 1554 76 58 220/ 12/ 14 1013.9 2 E DUCK 1600 62 N/A 3/12 2/12 OREGON INLET 1554 71 68 180/ 11/ 13 1014.6 13E OREGON INLT 1548 60 N/A 4/10 5/10 HATTERAS CG 1554 76 69 190/ 3/ 6 1014.8 DIAMOND BUOY 1550 77 77 220/ 14/ 17 1014.9 6/ 9 3/ 9 CAPE LOOKOUT 1600 74 230/ 9/ 12 1014.7 BEAUFORT LAB 1554 73 67 200/ 8/ 10 1014.1 30 SE NEW RVR IN 1608 72 250/ 10/ 12 1015.2 30 SE NEW RVR IN 1543 72 N/A 4/ 9 2/11 27 SE WRIGHTSVLE 1608 73 72 210/ 6/ 10 1014.2 5 SE WRIGHTSVLE 1608 72 71 180/ 12/ 19 1014.1 225 S CAPE HAT 1550 74 74 180/ 14/ 17 1018.2 5/ 8 3/ 8 41 SE CHARLESTON 1600 74 73 200/ 4/ 4 1014.4 $$

USA.gov is the U.S. government's official web portal to all federal, state and local government web resources and services.